Location: Spruce Knob
(38.6995°N, 79.5330°W)
Time: 23:49:03
(UTC-04:00)

MOZHAYETS 4 - Visible Passes

Search period start: 27 May 2024 00:00
Search period end: 06 June 2024 00:00
Orbit: 652 x 670 km, 98.3° (Epoch: 27 May)

Date Brightness Start Highest point End Pass type
(mag) Time Alt. Az. Time Alt. Az. Time Alt. Az.
27 May 10.6 03:26:39 10° E 03:28:58 14° ENE 03:31:17 10° NNE visible
27 May 7.8 05:00:56 10° S 05:05:23 56° W 05:09:51 10° NNW visible
28 May 9.8 03:54:53 10° SE 03:58:42 27° ENE 04:02:31 10° NNE visible
29 May 8.4 04:24:07 10° SSE 04:28:33 56° ENE 04:32:59 10° N visible
30 May 10.7 03:20:38 10° E 03:22:13 12° ENE 03:23:48 10° NE visible
30 May 7.7 04:54:01 10° S 04:58:32 68° WSW 05:03:02 10° NNW visible
31 May 10.0 03:48:21 10° ESE 03:51:54 23° ENE 03:55:27 10° NNE visible
01 Jun 8.7 04:17:23 10° SE 04:21:43 47° ENE 04:26:03 10° N visible
02 Jun 7.6 04:47:08 10° S 04:51:39 82° WSW 04:56:11 10° NNW visible
03 Jun 10.3 03:41:51 10° ESE 03:45:05 20° ENE 03:48:19 10° NNE visible
03 Jun 8.3 05:17:31 10° SSW 05:21:42 37° W 05:25:54 10° NNW visible
04 Jun 9.1 04:10:40 10° SE 04:14:51 39° ENE 04:19:03 10° N visible
05 Jun 7.7 04:40:14 10° SSE 04:44:44 84° ENE 04:49:16 10° NNW visible
